Location: Casteau
(50.5142°N, 4.0161°E)
Time: 05:45:13
(UTC+00:00)

ATLAS 2AS CENTAUR R/B - Pass Details

Date: 18 September 2020
Orbit: 939 x 1273 km, 63.7° (Epoch: 19 October)

Event Time Altitude Azimuth Distance (km) Brightness Sun altitude
Exits shadow 22:59:05 22° 265° (W) 2,472 4.6 -37.4°
Maximum altitude 23:04:07 48° 329° (NNW) 1,604 3.8 -37.6°
Drops below altitude 10° 23:11:35 10° 43° (NE) 3,180 5.5 -37.8°
Sets 23:14:26 0° 49° (NE) 4,107 6.1 -37.9°
